Weather History for KMKC - April, 2013

Change the Weather History Date:

Friday, April 12, 2013

  Actual Average Record
Temperature  
Mean Temperature 44 °F -  
Max Temperature 54 °F 63 °F 84 °F (2014)
Min Temperature 35 °F 44 °F 32 °F (1997)
Degree Days  
Heating Degree Days 21    
Moisture  
Dew Point 28 °F    
Average Humidity 60    
Maximum Humidity 72    
Minimum Humidity 43    
Precipitation  
Precipitation 0.00 in - - ()
Sea Level Pressure  
Sea Level Pressure 29.90 in    
Wind  
Wind Speed 9 mph (WNW)    
Max Wind Speed 15 mph    
Max Gust Speed 22 mph    
Visibility 10 miles    
Events      
Averages and records for this station are not official NWS values.
T = Trace of Precipitation, MM = Missing Value Source: NWS Daily Summary

Daily Weather History Graph

Daily Weather History Graph

Search for Another Location

Airport or City:

Trip Planner

Search our weather history database for the weather conditions in past years. The results will help you decide how hot, cold, wet, or windy it might be!

Date:

Astronomy

Apr. 12, 2013 Rise Set
Actual Time 6:45 AM CDT 7:53 PM CDT
Civil Twilight 6:18 AM CDT 8:20 PM CDT
Nautical Twilight 5:45 AM CDT 8:53 PM CDT
Astronomical Twilight 5:11 AM CDT 9:27 PM CDT
Moon 7:57 AM CDT (4/12) 10:23 PM CDT (4/12)
Length of Visible Light 14h 02m
Length of Day
13h 07m
Waxing Crescent, 5% of the Moon is Illuminated
Apr 12
Waxing Crescent
Apr 18
First Quarter
Apr 25
Full
May 2
Last Quarter
May 9
New

Hourly Weather History & Observations

Time (CDT) Temp. Windchill Dew Point Humidity Pressure Visibility Wind Dir Wind Speed Gust Speed Precip Events Conditions
12:54 AM 37.0 °F 31.6 °F 24.1 °F 59% 29.78 in 10.0 mi West 6.9 mph - N/A   Clear
1:54 AM 37.0 °F 29.3 °F 25.0 °F 62% 29.80 in 10.0 mi West 11.5 mph - N/A   Clear
2:54 AM 36.0 °F 29.0 °F 25.0 °F 64% 29.80 in 10.0 mi WNW 9.2 mph - N/A   Scattered Clouds
3:54 AM 36.0 °F 29.0 °F 26.1 °F 67% 29.80 in 10.0 mi West 9.2 mph - N/A   Overcast
4:54 AM 35.1 °F 28.6 °F 27.0 °F 72% 29.82 in 10.0 mi West 8.1 mph - N/A   Overcast
5:14 AM 35.6 °F 28.0 °F 26.6 °F 70% 29.81 in 10.0 mi West 10.4 mph 18.4 mph N/A   Overcast
5:54 AM 35.1 °F 28.6 °F 26.1 °F 70% 29.82 in 10.0 mi West 8.1 mph 17.3 mph N/A   Overcast
6:16 AM 35.6 °F 28.0 °F 26.6 °F 70% 29.81 in 10.0 mi West 10.4 mph - N/A   Overcast
6:54 AM 35.1 °F 26.9 °F 26.1 °F 70% 29.84 in 10.0 mi West 11.5 mph - N/A   Overcast
7:18 AM 35.6 °F 28.6 °F 26.6 °F 70% 29.84 in 10.0 mi West 9.2 mph - N/A   Overcast
7:54 AM 35.1 °F 27.4 °F 26.1 °F 70% 29.87 in 10.0 mi West 10.4 mph - N/A   Overcast
8:18 AM 35.6 °F 27.1 °F 26.6 °F 70% 29.87 in 10.0 mi West 12.7 mph 18.4 mph N/A   Overcast
8:54 AM 36.0 °F 27.1 °F 26.1 °F 67% 29.89 in 10.0 mi West 13.8 mph 20.7 mph N/A   Overcast
9:38 AM 37.4 °F 30.3 °F 26.6 °F 65% 29.89 in 10.0 mi West 10.4 mph 19.6 mph N/A   Overcast
9:54 AM 37.9 °F 30.0 °F 27.0 °F 65% 29.91 in 10.0 mi NW 12.7 mph 21.9 mph N/A   Overcast
10:54 AM 39.9 °F 33.4 °F 28.0 °F 63% 29.94 in 10.0 mi WNW 10.4 mph - N/A   Overcast
11:25 AM 39.2 °F 32.0 °F 26.6 °F 61% 29.93 in 10.0 mi West 11.5 mph 20.7 mph N/A   Overcast
11:54 AM 42.1 °F 35.2 °F 28.0 °F 58% 29.95 in 10.0 mi NW 12.7 mph 21.9 mph N/A   Overcast
12:54 PM 43.0 °F 37.2 °F 28.0 °F 56% 29.96 in 10.0 mi WNW 10.4 mph - N/A   Overcast
1:54 PM 45.0 °F 39.7 °F 28.0 °F 52% 29.96 in 10.0 mi WNW 10.4 mph - N/A   Mostly Cloudy
2:54 PM 48.0 °F - 28.0 °F 46% 29.96 in 10.0 mi West 13.8 mph 18.4 mph N/A   Mostly Cloudy
3:54 PM 51.1 °F - 30.9 °F 46% 29.94 in 10.0 mi WNW 13.8 mph 17.3 mph N/A   Mostly Cloudy
4:54 PM 53.1 °F - 30.9 °F 43% 29.94 in 10.0 mi NW 15.0 mph 20.7 mph N/A   Mostly Cloudy
5:54 PM 52.0 °F - 30.9 °F 45% 29.94 in 10.0 mi NW 10.4 mph - N/A   Scattered Clouds
6:54 PM 52.0 °F - 30.9 °F 45% 29.94 in 10.0 mi NW 10.4 mph - N/A   Scattered Clouds
7:54 PM 48.9 °F - 30.9 °F 50% 29.95 in 10.0 mi NW 5.8 mph - N/A   Clear
8:54 PM 48.0 °F - 30.9 °F 52% 29.99 in 10.0 mi NNW 9.2 mph - N/A   Partly Cloudy
9:54 PM 46.0 °F - 30.9 °F 56% 30.00 in 10.0 mi Calm Calm - N/A   Clear
10:54 PM 44.1 °F - 30.9 °F 60% 30.03 in 10.0 mi Calm Calm - N/A   Clear
11:54 PM 43.0 °F - 32.0 °F 65% 30.04 in 10.0 mi Calm Calm - N/A   Clear